Weather History for Two Harbors, MN

Change the Weather History Date:

Thursday, October 4, 2012

  Actual Average Record
Temperature  
Mean Temperature 46 °F -  
Max Temperature 55 °F 58 °F 78 °F (1967)
Min Temperature 35 °F 40 °F 28 °F (1996)
Degree Days  
Heating Degree Days 19    
Moisture  
Dew Point 36 °F    
Average Humidity 66    
Maximum Humidity 82    
Minimum Humidity 57    
Precipitation  
Precipitation 0.00 in - - ()
Sea Level Pressure  
Sea Level Pressure 29.77 in    
Wind  
Wind Speed 10 mph (SW)    
Max Wind Speed 26 mph    
Max Gust Speed 41 mph    
Visibility 10 miles    
Events      
Averages and records for this station are not official NWS values.
T = Trace of Precipitation, MM = Missing Value Source: NWS Daily Summary

Daily Weather History Graph

Daily Weather History Graph

Search for Another Location

Airport:

Trip Planner

Search our weather history database for the weather conditions in past years. The results will help you decide how hot, cold, wet, or windy it might be!

Date:

Astronomy

Oct. 04, 2012 Rise Set
Actual Time 7:10 AM CDT 6:39 PM CDT
Civil Twilight 6:40 AM CDT 7:10 PM CDT
Nautical Twilight 6:04 AM CDT 7:45 PM CDT
Astronomical Twilight 5:29 AM CDT 8:20 PM CDT
Moon 8:57 PM CDT (10/4) 11:45 AM CDT (10/4)
Length of Visible Light 12h 29m
Length of Day
11h 29m
Waning Gibbous, 82% of the Moon is Illuminated
Oct 4
Waning Gibbous
Oct 8
Last Quarter
Oct 15
New
Oct 21
First Quarter
Oct 29
Full

Hourly Weather History & Observations

Time (CDT) Temp. Windchill Dew Point Humidity Pressure Visibility Wind Dir Wind Speed Gust Speed Precip Events Conditions
12:11 AM 53.6 °F - 39.2 °F 58% 29.89 in 10.0 mi North 4.6 mph - N/A   Clear
12:32 AM 53.6 °F - 39.2 °F 58% 29.89 in 10.0 mi North 5.8 mph - N/A   Clear
12:51 AM 53.6 °F - 39.2 °F 58% 29.88 in 10.0 mi NNE 4.6 mph - N/A   Clear
1:12 AM 53.6 °F - 39.2 °F 58% 29.87 in 10.0 mi NNE 4.6 mph - N/A   Clear
1:31 AM 53.6 °F - 39.2 °F 58% 29.87 in 10.0 mi NNE 4.6 mph - N/A   Clear
1:51 AM 51.8 °F - 37.4 °F 58% 29.86 in 10.0 mi Calm Calm - N/A   Clear
2:12 AM 51.8 °F - 37.4 °F 58% 29.85 in 10.0 mi NE 3.5 mph - N/A   Clear
2:32 AM 51.8 °F - 37.4 °F 58% 29.84 in 10.0 mi NNE 6.9 mph - N/A   Clear
2:51 AM 51.8 °F - 39.2 °F 62% 29.83 in 10.0 mi NE 4.6 mph - N/A   Clear
3:12 AM 51.8 °F - 39.2 °F 62% 29.82 in 10.0 mi NNE 3.5 mph - N/A   Clear
3:32 AM 51.8 °F - 39.2 °F 62% 29.82 in 10.0 mi NNE 5.8 mph - N/A   Clear
3:51 AM 51.8 °F - 39.2 °F 62% 29.81 in 10.0 mi Calm Calm - N/A   Scattered Clouds
4:12 AM 51.8 °F - 41.0 °F 67% 29.80 in 10.0 mi ENE 3.5 mph - N/A   Scattered Clouds
4:32 AM 51.8 °F - 41.0 °F 67% 29.79 in 10.0 mi Calm Calm - N/A   Mostly Cloudy
4:51 AM 51.8 °F - 42.8 °F 71% 29.78 in 10.0 mi NE 4.6 mph - N/A   Mostly Cloudy
5:11 AM 51.8 °F - 42.8 °F 71% 29.77 in 10.0 mi NE 3.5 mph - N/A   Scattered Clouds
5:32 AM 51.8 °F - 42.8 °F 71% 29.76 in 10.0 mi NE 3.5 mph - N/A   Clear
5:51 AM 51.8 °F - 44.6 °F 76% 29.75 in 10.0 mi Calm Calm - N/A   Clear
6:11 AM 51.8 °F - 44.6 °F 76% 29.73 in 10.0 mi NE 4.6 mph - N/A   Clear
6:32 AM 51.8 °F - 44.6 °F 76% 29.71 in 10.0 mi NE 9.2 mph - N/A   Clear
6:51 AM 51.8 °F - 46.4 °F 82% 29.70 in 10.0 mi ENE 9.2 mph 18.4 mph N/A   Clear
7:11 AM 51.8 °F - 46.4 °F 82% 29.70 in 10.0 mi East 6.9 mph - N/A   Scattered Clouds
7:36 AM 51.8 °F - 46.4 °F 82% 29.68 in 10.0 mi ENE 11.5 mph - N/A   Mostly Cloudy
7:51 AM 51.8 °F - 46.4 °F 82% 29.69 in 10.0 mi East 8.1 mph 16.1 mph N/A   Mostly Cloudy
8:11 AM 51.8 °F - 46.4 °F 82% 29.68 in 10.0 mi East 6.9 mph - N/A   Clear
8:32 AM 53.6 °F - 46.4 °F 77% 29.67 in 10.0 mi East 13.8 mph - N/A   Clear
8:51 AM 55.4 °F - 46.4 °F 72% 29.66 in 10.0 mi East 11.5 mph 16.1 mph N/A   Clear
9:11 AM 53.6 °F - 42.8 °F 67% 29.67 in 10.0 mi South 11.5 mph 21.9 mph N/A   Scattered Clouds
9:32 AM 51.8 °F - 41.0 °F 67% 29.69 in 10.0 mi SSW 17.3 mph 29.9 mph N/A   Scattered Clouds
9:51 AM 50.0 °F - 39.2 °F 66% 29.69 in 10.0 mi SSW 17.3 mph 26.5 mph N/A   Mostly Cloudy
10:11 AM 48.2 °F - 39.2 °F 71% 29.69 in 10.0 mi SSW 15.0 mph 25.3 mph N/A   Overcast
10:32 AM 48.2 °F - 39.2 °F 71% 29.69 in 10.0 mi SSW 9.2 mph 19.6 mph N/A   Overcast
10:51 AM 48.2 °F - 39.2 °F 71% 29.69 in 10.0 mi SW 18.4 mph 26.5 mph N/A   Overcast
11:32 AM 48.2 °F - 39.2 °F 71% 29.69 in 10.0 mi SSW 21.9 mph 26.5 mph N/A   Overcast
11:51 AM 46.4 °F 38.5 °F 37.4 °F 71% 29.70 in 10.0 mi SSW 21.9 mph 31.1 mph N/A   Overcast
12:11 PM 46.4 °F 38.3 °F 37.4 °F 71% 29.70 in 10.0 mi SSW 23.0 mph 29.9 mph N/A   Overcast
12:32 PM 44.6 °F 35.3 °F 35.6 °F 71% 29.72 in 10.0 mi SSW 26.5 mph 34.5 mph N/A   Overcast
12:51 PM 44.6 °F 36.1 °F 35.6 °F 71% 29.72 in 10.0 mi SSW 21.9 mph 29.9 mph N/A   Overcast
1:11 PM 44.6 °F 35.9 °F 35.6 °F 71% 29.72 in 10.0 mi SW 23.0 mph 33.4 mph N/A   Overcast
1:32 PM 44.6 °F 35.7 °F 33.8 °F 66% 29.73 in 10.0 mi SW 24.2 mph 38.0 mph N/A   Overcast
1:51 PM 44.6 °F 35.5 °F 33.8 °F 66% 29.74 in 10.0 mi WSW 25.3 mph 35.7 mph N/A   Overcast
2:11 PM 44.6 °F 35.7 °F 32.0 °F 61% 29.75 in 10.0 mi SW 24.2 mph 32.2 mph N/A   Overcast
2:32 PM 44.6 °F 36.6 °F 30.2 °F 57% 29.76 in 10.0 mi WSW 19.6 mph 34.5 mph N/A   Overcast
2:51 PM 44.6 °F 35.7 °F 30.2 °F 57% 29.76 in 10.0 mi WSW 24.2 mph 35.7 mph N/A   Overcast
3:11 PM 44.6 °F 36.1 °F 30.2 °F 57% 29.76 in 10.0 mi SW 21.9 mph 32.2 mph N/A   Overcast
3:32 PM 42.8 °F 34.5 °F 30.2 °F 61% 29.77 in 10.0 mi SW 18.4 mph 33.4 mph N/A   Overcast
3:51 PM 42.8 °F 33.1 °F 30.2 °F 61% 29.78 in 10.0 mi SW 25.3 mph 38.0 mph N/A   Overcast
4:11 PM 42.8 °F 34.8 °F 28.4 °F 57% 29.78 in 10.0 mi WSW 17.3 mph 34.5 mph N/A   Overcast
4:31 PM 42.8 °F 33.8 °F 28.4 °F 57% 29.79 in 10.0 mi WSW 21.9 mph 35.7 mph N/A   Overcast
4:51 PM 42.8 °F 34.8 °F 28.4 °F 57% 29.80 in 10.0 mi WSW 17.3 mph 35.7 mph N/A   Overcast
5:12 PM 42.8 °F 34.3 °F 28.4 °F 57% 29.80 in 10.0 mi WSW 19.6 mph 29.9 mph N/A   Overcast
5:31 PM 42.8 °F 33.1 °F 28.4 °F 57% 29.81 in 10.0 mi WSW 25.3 mph 35.7 mph N/A   Overcast
5:51 PM 41.0 °F 31.9 °F 28.4 °F 61% 29.81 in 10.0 mi WSW 19.6 mph 41.4 mph N/A   Overcast
6:12 PM 41.0 °F 33.1 °F 28.4 °F 61% 29.82 in 10.0 mi WSW 15.0 mph 31.1 mph N/A   Overcast
6:31 PM 39.2 °F 28.7 °F 28.4 °F 65% 29.82 in 10.0 mi WSW 23.0 mph 32.2 mph N/A   Overcast
6:51 PM 39.2 °F 29.6 °F 28.4 °F 65% 29.82 in 10.0 mi WSW 19.6 mph 31.1 mph N/A   Overcast
7:11 PM 39.2 °F 28.7 °F 26.6 °F 61% 29.83 in 10.0 mi WSW 23.0 mph 33.4 mph N/A   Overcast
7:32 PM 39.2 °F 29.0 °F 26.6 °F 61% 29.83 in 10.0 mi WSW 21.9 mph 36.8 mph N/A   Overcast
8:12 PM 37.4 °F 27.2 °F 26.6 °F 65% 29.83 in 10.0 mi WSW 19.6 mph 29.9 mph N/A   Overcast
8:31 PM 37.4 °F 26.9 °F 26.6 °F 65% 29.83 in 10.0 mi WSW 20.7 mph 32.2 mph N/A   Overcast
8:51 PM 37.4 °F 27.2 °F 26.6 °F 65% 29.84 in 10.0 mi WSW 19.6 mph 28.8 mph N/A   Overcast
9:12 PM 37.4 °F 26.1 °F 26.6 °F 65% 29.84 in 10.0 mi WSW 24.2 mph 29.9 mph N/A   Overcast
9:31 PM 37.4 °F 26.9 °F 26.6 °F 65% 29.83 in 10.0 mi WSW 20.7 mph 32.2 mph N/A   Overcast
9:52 PM 37.4 °F 27.5 °F 26.6 °F 65% 29.83 in 10.0 mi WSW 18.4 mph 32.2 mph N/A   Overcast
9:54 PM 35.6 °F 25.9 °F 26.6 °F 70% 29.84 in 10.0 mi WSW 16.1 mph 32.2 mph N/A   Overcast